Miscellaneous Local Product
Issued by NWS North Platte, NE

Home | Current Version | Previous Version | Text Only | Print | Product List | Glossary On
Versions: 1 2 3 4 5 6 7 8 9 10 11 12 13 14 15 16 17 18 19 20 21 22 23 24 25 26 27 28 29 30 31 32 33 34 35 36 37 38 39 40 41 42 43 44 45 46 47 48 49 50
000
AXUS43 KLBF 281910
MISLBF


WESTERN AND NORTH CENTRAL NEBRASKA HOURLY WEATHER ROUNDUP
NATIONAL WEATHER SERVICE NORTH PLATTE NE
200 PM CDT THU APR 28 2016

NOTE: "FAIR" INDICATES FEW OR NO CLOUDS BELOW 12,000 FEET WITH NO
SIGNIFICANT WEATHER AND/OR OBSTRUCTIONS TO VISIBILITY.

NOTE: STATIONS NOT REPORTING VARIABLES SUCH AS SKY/WEATHER OR
PRESSURE ARE PROVIDED BY RAWS AND APRS NETWORKS AND ARE NOT UNDER
NATIONAL WEATHER SERVICE QUALITY CONTROL.

...OBSERVATIONS IN AND NEAR THE EASTERN PANHANDLE OF NEBRASKA...

CITY           SKY/WX    TMP DP  RH WIND       PRES   REMARKS
PINE RIDGE     CLOUDY    41  33  73 N5        30.03F
CHADRON        CLOUDY    42  33  70 N12       30.02F
ALLIANCE       CLOUDY    40  29  64 N9        30.00S WCI  34
SIDNEY         CLOUDY    41  28  60 NE8       30.01S
CRESCENT LAKE    N/A     42  30  62 N12G20      N/A
BIG SPRINGS      N/A     47  34  60 N6          N/A
$$

...OBSERVATIONS IN NORTHERN NEBRASKA AND FAR SOUTHERN SOUTH DAKOTA...

CITY           SKY/WX    TMP DP  RH WIND       PRES   REMARKS
WINNER         CLOUDY    42  36  79 N14       30.04R
VALENTINE      CLOUDY    43  35  73 N15       30.02F
THEDFORD       CLOUDY    46  37  72 N10       30.01S
AINSWORTH      CLOUDY    42  37  82 N12G22    30.01S
O`NEILL        CLOUDY    44  38  81 N14       30.01R
ORD            CLOUDY    46  39  76 NW10      29.99S
BROKEN BOW     CLOUDY    45  39  79 NW12      30.00S
VALENTINE NWR    N/A     41  35  80 N13         N/A
BUTTE            N/A     40  38  93 NW13        N/A  WCI  32
HALSEY           N/A     43  37  79 N6G13       N/A
CHAMBERS         N/A     48  39  71 N8          N/A
EWING            N/A     44  41  89 N12G20      N/A
$$

...OBSERVATIONS IN SOUTHWEST NEBRASKA AND FAR NORTHEAST COLORADO...

CITY           SKY/WX    TMP DP  RH WIND       PRES   REMARKS
IMPERIAL       CLOUDY    46  30  53 NE5       30.02R
OGALLALA       MOSUNNY   47  30  51 N3        30.01R
NORTH PLATTE   CLOUDY    47  35  63 N7        30.00F
MCCOOK         CLOUDY    52  35  52 VRB3      30.01R
LEXINGTON      CLOUDY    48  39  70 N10       30.00S
PAXTON           N/A     47  35  64 N10         N/A
STAPLETON        N/A     44  37  75 CALM        N/A
GOTHENBURG       N/A     45  34  66 N7          N/A
CALLAWAY         N/A     43  37  80 N10         N/A
$$

...OBSERVATIONS IN CENTRAL LINCOLN COUNTY AREA...

CITY           SKY/WX    TMP DP  RH WIND       PRES   REMARKS
N.P. AIRPORT   CLOUDY    47  35  63 N7        30.00F
N.P. DOWNTOWN    N/A     46  37  70 N3          N/A
N.P. SOUTHEAST   N/A     46  35  65 N3          N/A
N.P. HILLCREST   N/A     46  36  69 NE10        N/A
$$

...SOME OBSERVATIONS FROM AROUND THE REGION...

CITY           SKY/WX    TMP DP  RH WIND       PRES   REMARKS
DENVER         CLOUDY    37  29  72 E13       29.97S WCI  29
LARAMIE        SNOW      29  27  92 E12       29.91S VSB 1/2 WCI  19
CHEYENNE       SNOW      32  29  88 E9        29.96R VSB 1/2 WCI  24
SCOTTSBLUFF    CLOUDY    44  30  57 E8        30.01S
RAPID CITY     CLOUDY    40  34  79 N10       30.05F WCI  33
BISMARCK       CLOUDY    57  24  28 E14G23    30.09F
PIERRE         CLOUDY    45  35  68 NE14      30.04S
SIOUX FALLS    CLOUDY    41  37  86 N12       29.98S
OMAHA          CLOUDY    50  43  77 NW10      29.96R
GRAND ISLAND   CLOUDY    48  40  73 NW14      30.00S
KANSAS CITY    CLOUDY    55  46  71 NW8G18    29.96S
WICHITA        MOSUNNY   62  42  47 N9        29.98F
OKLAHOMA CITY  PTSUNNY   70  47  43 E8        29.94S
DALLAS         MOSUNNY   82  57  42 SE13      29.86F
AMARILLO       SUNNY     70  46  42 SE25G33   29.85F
DODGE CITY     PTSUNNY   55  33  43 N15G22    29.98F
HAYS           SUNNY     54  34  47 N9        30.00S
GOODLAND       CLOUDY    47  31  53 NE10      29.99F
$$




USA.gov is the U.S. government's official web portal to all federal, state and local government web resources and services.